World > North America > United States > Texas > Golinda

Hourly Golinda, TX Regional Weather

Feedback E-mail the Weather

Quick WX

Golinda, TX Weather Maps

°F °C°F °C
Golinda Weather Map
UTC Time: 8/14/2022, 18:43
Your Time:

Golinda, TX Regional Weather

Expires:202208141900;;095295
ASUS44 KFWD 141815
RWRTX 
NORTH TEXAS HOURLY WEATHER ROUNDUP
NATIONAL WEATHER SERVICE FORT WORTH TX
100 PM CDT SUN AUG 14 2022

NOTE: "FAIR" INDICATES FEW OR NO CLOUDS BELOW 12,000 FEET WITH NO
SIGNIFICANT WEATHER AND/OR OBSTRUCTIONS TO VISIBILITY.


TXZ143>147-156>162-174-175-141900-
CENTRAL TEXAS
  
CITY           SKY/WX    TMP DP  RH WIND       PRES   REMARKS
WACO           CLOUDY    91  70  49 SE10G16   29.99F HX  96           
6HR MIN TEMP:  77; 6HR MAX TEMP:  93;                                

WACO-TSTC      PTSUNNY   91  66  43 SE9       29.99F HX  94           
WACO-MCGREGOR  PTSUNNY   91  71  51 S10       30.00F HX  97           
6HR MIN TEMP:  76; 6HR MAX TEMP:  92;                                

HILLSBORO      PTSUNNY   93  69  44 E10       29.99S HX  98           
6HR MIN TEMP:  77; 6HR MAX TEMP:  93;                                

MEXIA          CLOUDY    91  71  50 S8        29.99F HX  97           
6HR MIN TEMP:  74; 6HR MAX TEMP:  93;                                

HEARNE         PTSUNNY   92  71  49 SE10      29.99S HX  99           
6HR MIN TEMP:  77; 6HR MAX TEMP:  94;                                

CAMERON        FAIR      93  70  46 E6        29.97F HX  99           
6HR MIN TEMP:  76; 6HR MAX TEMP:  94;                                

TEMPLE         PTSUNNY   90  70  51 VRB6      30.00  HX  95           
6HR MIN TEMP:  74; 6HR MAX TEMP:  91;                                

KILLEEN        FAIR      89  67  48 E6        29.97F HX  92           
6HR MIN TEMP:  74; 6HR MAX TEMP:  89;                                

KILLEEN-SKYLRK FAIR      91  70  49 SE9       30.00F HX  96           
6HR MIN TEMP:  74; 6HR MAX TEMP:  92;                                

FORT HOOD      PTSUNNY   90  68  48 E8        30.00F HX  93           
6HR MIN TEMP:  76; 6HR MAX TEMP:  90;                                

GATESVILLE     FAIR      91  68  46 MISG      30.02S HX  95           
HAMILTON       FAIR      94  64  36 SE12      30.02F HX  96           
6HR MIN TEMP:  74; 6HR MAX TEMP:  95;                                

LAMPASAS       PTSUNNY   89  68  50 SE10G22     N/A  HX  92           
6HR MIN TEMP:  71; 6HR MAX TEMP:  90;                                

$$


SKY/WX - Weather  TMP - Temperature  DP - Dew Point  RH - Humidity
WIND - Wind Direction/Speed PRES - Barometric Pressure VSB - Visibility
WCI - Wind Chill Index E13G22 Wind - East Wind 13 mph/Gusts of 22 mph

Trending Headlines

Golinda Radar Loop



Golinda Quick Facts


National Two Day Weather Forecast


E-mail the Golinda Weather Forecast

Voice your opinion or tell us about page issues...